Temperature
21 21 21 21 19 18 19 20 20 20 20 20 19 19 18 18 18 17 17 17 17 17 17 18 18 18 18 18 18 18 17 17 17 17 17 17 17 17 17 17 17 17 17 17 17 17 17 17 18
21 21 21 21 18 18 19 20 20 20 20 20 20 19 18 17 17 17 17 17 17 18 18 18 18 18 17 17 17 17 17 17 17 17 17 17 17 17 17 17 17 17 17 17 17 17 17 17 17
21 21 21 18 19 19 19 20 20 21 21 21 19 19 18 17 17 17 17 17 18 18 17 17 17 17 17 17 17 17 17 17 17 17 17 17 16 16 16 16 17 17 17 17 17 17 17 17 17
21 21 21 18 19 20 20 20 21 21 20 20 19 18 18 18 18 17 17 18 18 17 17 17 17 17 17 17 17 17 17 17 17 17 16 16 16 16 16 16 16 16 16 16 17 17 17 17 17
21 21 18 19 20 20 20 21 21 20 20 19 19 18 18 18 18 18 18 18 18 18 17 17 17 17 17 17 17 17 17 17 17 16 16 16 16 16 16 16 16 16 16 16 16 16 16 17 17
21 19 18 18 20 20 20 20 20 19 19 19 18 18 17 18 18 18 18 18 18 18 17 17 17 17 17 17 17 17 16 16 16 16 16 16 16 16 16 16 16 16 16 16 16 16 16 16 17
20 18 18 19 19 19 20 20 20 19 19 19 19 18 18 18 18 18 18 18 18 18 17 17 17 17 17 17 16 16 16 16 16 16 16 16 16 16 16 16 16 16 16 16 16 16 16 16 16
21 18 19 19 19 19 20 20 20 20 20 19 19 18 18 18 18 18 18 18 18 18 17 17 17 17 17 16 16 16 16 16 16 16 16 16 16 16 16 15 15 15 15 16 16 16 16 16 16
21 17 18 19 19 19 20 20 20 20 20 19 19 19 18 18 18 18 18 18 18 17 17 17 17 17 17 16 16 16 16 16 16 16 16 16 16 16 16 16 15 15 15 15 16 16 16 16 16
20 17 19 19 19 19 20 20 20 20 19 19 19 19 18 18 18 18 18 18 18 18 17 17 17 17 17 17 16 16 16 16 16 16 16 16 16 16 16 16 15 15 15 16 16 16 16 16 16
20 18 19 20 20 20 20 20 20 19 18 18 19 18 18 19 19 18 18 18 18 18 18 17 17 17 17 17 17 17 16 16 16 16 16 16 16 16 16 16 16 16 16 16 16 16 16 16 16
19 19 20 20 21 20 20 20 19 19 19 19 19 19 19 19 19 19 18 18 18 18 18 18 17 17 17 17 17 17 17 16 16 16 16 16 16 16 16 16 16 16 16 16 16 16 16 16 16
19 19 20 21 21 20 20 20 20 19 19 20 19 19 19 19 19 19 19 19 18 18 18 18 18 17 17 17 17 17 17 16 16 16 16 16 16 16 16 16 16 16 16 16 16 16 16 16 16
19 20 20 20 20 20 20 19 20 19 19 19 19 19 19 19 19 19 19 19 19 19 18 18 18 18 17 17 17 17 17 16 16 16 16 16 16 16 16 16 16 16 16 16 16 16 16 16 16
20 19 19 19 20 20 20 19 19 19 20 19 19 19 19 19 19 19 19 19 19 19 18 18 18 18 17 17 17 17 17 17 16 16 16 16 16 16 16 16 16 16 15 15 15 15 16 15 15
19 18 18 19 20 20 19 18 19 20 20 19 19 19 19 19 20 19 19 19 19 19 19 18 18 18 18 17 17 17 17 17 16 16 16 16 16 16 16 16 15 15 15 15 15 15 15 15 15
18 17 18 19 19 20 19 18 19 20 20 19 20 20 20 20 20 19 19 19 19 19 19 18 18 18 18 17 17 17 17 16 16 16 16 16 16 15 15 15 15 15 15 15 15 15 15 15 15
17 17 18 18 19 19 18 18 18 19 20 20 20 20 20 20 20 20 20 19 19 19 19 18 18 18 18 17 17 17 17 16 16 16 16 16 15 15 15 15 15 15 15 15 15 15 15 15 15
19 18 18 19 19 19 18 18 18 19 19 19 19 20 20 20 20 20 20 19 19 19 19 19 18 18 18 17 17 17 16 16 16 16 16 16 15 15 15 15 15 15 15 15 15 15 15 15 15
19 18 18 19 20 19 18 18 18 19 19 20 20 20 20 20 20 20 20 20 19 19 19 19 18 18 18 17 17 17 16 16 16 16 16 16 15 15 15 15 15 15 15 15 14 14 15 15 15
19 18 18 19 19 19 19 18 18 18 19 20 20 20 20 20 20 20 20 20 19 19 19 19 18 18 18 18 17 17 16 16 16 16 16 16 15 15 15 15 15 15 15 14 14 14 14 14 14
19 20 20 20 18 18 19 17 18 18 18 19 20 20 20 20 20 20 20 20 20 19 19 19 19 18 18 18 17 17 17 16 16 16 16 16 15 15 15 15 15 15 14 14 14 14 14 14 14
19 20 20 19 18 18 18 17 18 18 18 18 19 20 20 20 20 20 20 20 20 19 19 19 19 18 18 18 17 17 17 16 16 16 16 15 15 15 15 15 15 15 14 14 14 14 14 14 13
20 20 19 18 17 18 18 18 18 17 18 19 19 20 21 21 21 21 20 20 20 19 19 19 19 18 18 18 17 17 17 17 16 16 16 16 15 15 15 15 15 14 14 14 14 14 14 13 13
19 18 17 17 17 17 18 18 18 19 19 20 20 20 21 21 21 21 20 20 20 20 19 19 19 18 18 18 17 17 17 17 16 16 16 16 15 15 15 15 14 14 14 14 14 14 14 13 13
19 18 17 17 17 17 19 19 19 20 21 22 22 22 21 21 21 21 21 20 20 20 19 19 19 18 18 18 17 17 17 17 16 16 16 15 15 15 15 15 14 14 14 14 14 13 13 13 13
19 18 18 17 18 18 18 19 20 21 20 21 21 21 21 21 21 21 21 21 20 20 19 19 19 18 18 18 17 17 17 17 16 16 16 15 15 15 15 14 14 14 14 14 13 13 13 13 13
20 19 17 18 18 18 18 19 19 20 20 20 20 20 21 21 21 21 21 21 20 20 20 19 19 18 18 18 17 17 17 17 16 16 16 15 15 15 15 14 14 14 14 13 13 13 13 13 13
20 20 18 17 17 17 18 19 20 20 20 19 20 21 21 21 21 21 21 21 20 20 19 19 19 18 18 18 17 17 17 16 16 16 16 15 15 15 15 14 14 14 13 13 13 13 13 12 12
20 20 18 18 18 17 17 18 21 20 20 21 21 21 22 22 22 21 21 21 20 20 19 19 19 18 18 18 17 17 17 16 16 16 16 15 15 15 14 14 14 14 13 13 13 13 12 12 12
Wind_Speed
7 5 2 3 5 5 3 2 2 3 5 6 10 11 10 7 6 7 3 5 8 6 8 12 13 14 14 14 14 14 14 14 14 13 13 12 12 12 12 12 11 11 11 10 10 9 9 8 8
4 2 3 4 5 4 3 1 6 6 8 8 10 10 9 8 6 8 4 7 8 9 9 12 14 14 14 14 14 14 13 13 13 13 12 12 12 12 12 11 11 11 10 10 9 8 8 8 8
3 0 3 4 4 4 4 3 9 8 7 5 6 6 6 5 5 5 7 9 9 9 10 12 13 13 13 13 13 13 13 12 12 12 12 11 11 11 11 11 10 10 9 9 9 8 7 7 7
2 4 4 5 5 2 5 5 9 9 7 7 7 7 5 4 5 8 10 10 10 8 10 12 13 14 13 13 13 12 12 12 11 11 11 11 11 10 10 9 9 8 8 8 7 7 7 7 7
3 4 5 5 5 3 4 5 5 7 5 7 9 8 5 3 10 12 11 11 10 7 9 12 13 13 13 13 12 11 11 11 10 10 9 9 9 9 8 8 7 7 7 6 6 6 6 7 7
4 4 5 4 5 3 4 7 11 14 12 10 10 8 5 6 10 10 10 9 9 8 9 11 13 13 12 11 11 10 10 9 8 8 7 6 6 6 6 6 6 6 6 6 5 6 6 7 7
4 4 4 6 6 4 4 5 8 10 9 6 7 7 5 7 9 10 10 9 8 8 8 8 10 10 10 10 10 9 8 7 6 6 5 4 3 4 4 4 4 5 5 5 5 6 6 7 7
4 5 4 3 6 4 3 4 7 9 7 7 5 7 7 8 9 10 9 8 7 6 6 6 7 8 7 7 7 7 6 5 4 3 3 2 2 1 2 2 3 4 5 5 6 6 7 7 8
4 5 3 4 6 5 6 7 5 6 8 4 4 6 10 12 11 10 8 6 5 6 4 5 5 6 6 5 5 4 4 3 2 2 2 2 3 2 2 3 4 5 6 7 7 8 8 7 8
5 4 3 3 5 7 9 9 5 6 9 8 9 10 11 11 11 10 8 7 7 6 5 4 4 5 5 4 3 2 1 2 2 2 3 3 3 2 2 4 5 6 7 8 8 9 8 7 7
4 5 4 4 7 8 7 6 5 9 8 10 14 13 11 11 9 9 7 7 6 6 6 5 5 6 5 3 4 3 3 3 3 3 4 5 5 5 5 5 6 7 8 8 8 8 8 7 6
5 4 5 5 7 8 7 6 6 7 8 9 12 12 10 11 9 8 8 7 6 6 6 5 5 5 5 5 4 4 4 4 4 5 6 7 5 5 5 4 5 6 6 6 6 6 7 7 6
6 5 6 7 10 8 10 9 9 8 9 10 11 10 10 10 9 7 7 7 7 7 6 5 6 5 5 5 4 4 4 4 5 7 7 7 5 3 4 5 6 7 7 5 5 5 5 5 5
6 8 7 8 9 8 11 7 7 7 9 10 11 10 10 10 9 7 7 6 7 7 7 5 6 5 6 4 4 4 5 7 9 9 9 9 8 6 5 5 5 6 7 6 5 5 4 3 3
7 8 7 5 5 5 9 7 6 8 9 10 9 9 9 9 9 9 8 8 8 8 7 7 6 6 6 5 4 5 6 8 8 9 10 10 9 8 6 4 4 6 8 8 7 6 5 4 4
4 5 4 1 3 3 7 7 6 7 10 8 8 8 8 8 8 8 8 8 8 8 7 7 7 7 6 5 5 5 7 8 7 9 10 11 10 10 8 4 4 7 8 7 4 5 4 5 4
3 4 5 2 1 3 5 6 6 6 10 9 8 8 8 7 7 8 9 9 8 8 8 7 6 6 6 5 6 6 7 6 7 9 9 10 10 10 8 5 5 8 7 5 4 5 3 4 4
4 5 4 3 2 4 5 5 6 6 9 10 9 8 8 8 8 9 9 9 8 7 8 7 6 5 5 4 4 4 5 4 6 7 8 9 9 9 8 5 6 7 5 5 5 4 4 3 3
6 6 5 3 3 4 5 6 6 7 7 9 9 9 9 8 7 8 8 8 7 7 7 7 6 5 4 3 3 3 2 2 2 4 7 8 8 9 8 5 5 5 4 4 5 4 5 5 4
6 6 4 2 3 4 4 4 5 7 9 11 12 11 10 8 7 7 8 8 8 8 8 7 7 6 5 3 3 3 3 2 1 3 5 7 8 8 7 5 4 4 4 6 6 4 3 4 5
3 6 5 4 3 3 4 1 4 6 6 7 9 10 10 12 12 10 9 8 9 9 9 8 7 6 5 5 4 4 4 3 3 3 2 4 6 8 7 6 5 4 3 4 4 4 4 4 4
2 4 7 6 5 2 4 2 6 7 7 8 9 10 11 12 11 10 10 9 9 9 8 8 7 6 5 6 6 6 4 3 1 1 1 3 5 6 7 7 6 5 3 4 4 4 3 4 3
3 4 6 4 3 1 2 3 6 5 8 12 12 12 12 13 13 12 11 11 10 9 9 8 8 6 5 6 7 7 5 3 2 1 2 2 3 5 6 6 6 4 3 4 4 5 4 3 3
3 4 5 4 3 1 5 5 6 7 12 12 12 13 13 13 12 11 10 9 8 8 8 8 8 6 5 6 6 7 7 5 4 3 2 1 2 3 4 5 5 4 3 3 3 4 5 4 4
4 5 3 3 2 4 3 4 8 10 10 13 14 14 13 13 12 12 12 11 10 10 9 9 9 7 6 6 6 6 6 6 5 4 2 1 1 1 2 3 3 3 3 4 4 4 4 4 4
3 5 6 4 3 3 2 4 7 7 8 10 11 11 12 13 13 14 14 13 12 12 11 10 10 7 6 6 5 5 5 4 4 4 3 3 2 1 0 2 3 3 4 4 4 4 3 3 4
4 3 5 5 1 1 3 4 6 3 3 7 9 10 12 13 14 13 13 13 12 12 12 12 11 8 7 7 6 5 5 5 4 4 3 2 2 1 2 3 3 3 4 4 4 3 3 3 3
5 5 4 3 2 1 4 3 4 4 5 7 10 12 12 11 11 12 12 12 12 12 10 10 10 9 7 7 6 6 5 5 5 4 4 2 1 2 2 2 3 3 3 4 3 3 3 4 3
3 3 4 3 4 3 2 6 5 8 9 10 11 12 13 13 13 12 12 11 11 10 10 9 9 8 7 7 6 6 5 5 5 4 3 3 2 2 3 2 3 2 3 3 3 3 3 4 3
5 5 6 4 2 3 3 6 6 7 8 9 10 10 11 12 12 11 11 10 10 10 10 10 9 8 8 7 7 7 6 5 5 4 3 3 3 2 3 3 3 3 2 2 3 2 3 2 3
Wind_Direction
313 318 88 62 56 55 60 48 121 86 69 67 79 85 84 63 88 116 157 138 125 113 100 97 97 98 97 96 94 92 89 87 86 84 82 80 77 74 72 71 69 67 65 63 59 55 52 50 45
320 326 68 59 79 79 58 81 92 90 125 121 83 77 76 73 83 108 124 137 126 115 106 102 101 101 100 97 94 92 89 86 85 84 82 80 78 75 73 70 68 66 63 61 57 54 49 43 40
308 260 76 68 88 133 136 127 108 103 107 97 84 59 68 95 105 118 145 139 119 110 110 109 107 105 102 99 95 93 90 87 85 83 82 81 78 74 70 68 67 64 62 59 54 50 43 37 32
34 44 56 72 86 111 141 137 117 110 72 61 95 72 66 89 117 135 140 129 119 118 120 118 115 109 105 102 98 95 93 90 87 86 84 82 78 74 70 67 66 62 58 55 50 42 33 25 19
77 75 67 74 82 74 96 109 108 104 82 82 93 94 81 81 116 131 135 131 127 128 129 126 120 115 110 107 105 101 97 94 92 90 88 85 80 76 71 68 64 59 53 48 39 28 21 14 7
54 66 88 106 106 92 84 95 94 98 108 103 99 104 99 123 126 136 136 133 135 136 132 130 126 121 118 115 110 105 102 100 98 93 92 91 84 79 74 69 63 59 51 43 31 18 7 2 358
99 88 112 131 121 106 109 109 109 121 120 113 118 102 119 130 140 138 133 133 134 136 134 131 131 129 125 120 116 112 108 104 99 92 91 92 85 81 75 64 55 49 41 29 17 8 360 355 351
122 99 93 120 124 121 117 102 115 117 109 120 115 124 145 157 143 128 128 129 133 135 138 140 139 137 135 128 126 121 115 108 97 81 71 64 53 53 46 39 26 23 23 13 5 1 358 356 356
88 81 119 145 130 125 109 96 88 83 104 101 85 125 149 147 131 117 112 115 134 145 150 144 147 151 153 152 148 132 115 101 68 36 33 42 22 345 335 360 9 8 10 8 6 5 3 360 359
81 109 152 153 137 126 115 110 105 96 93 95 100 114 131 131 128 127 131 137 147 158 167 160 161 169 171 166 145 119 81 58 40 28 33 47 32 7 1 2 11 13 13 11 14 14 12 11 6
94 130 129 100 118 120 114 102 95 115 117 139 140 143 139 132 133 136 142 144 155 163 157 160 165 165 159 140 124 103 74 58 49 41 55 64 54 40 32 22 13 17 19 13 9 12 12 14 14
98 98 113 112 113 115 116 109 104 119 149 153 146 145 139 139 146 146 146 146 137 133 144 154 145 134 136 124 113 106 85 68 54 51 63 69 60 45 34 28 15 16 13 8 11 7 7 17 22
94 100 94 104 100 102 100 105 115 123 137 137 135 135 142 148 154 155 149 138 123 120 130 135 130 126 120 105 98 91 82 68 55 54 60 69 67 54 44 35 31 23 24 20 14 12 13 18 18
116 105 96 96 94 97 105 110 110 141 140 138 141 145 147 151 156 148 141 136 128 125 128 123 119 118 109 102 99 96 83 74 63 57 62 68 68 62 52 39 31 23 22 25 29 25 23 19 19
106 99 81 77 94 115 107 100 133 156 143 143 149 151 150 155 154 155 157 150 142 135 129 125 123 110 106 106 105 99 90 80 68 63 65 63 62 61 58 45 27 19 26 31 32 25 28 27 25
81 84 105 96 109 125 115 143 173 162 139 145 147 144 148 157 157 160 155 147 145 140 131 126 122 111 109 108 104 99 94 84 73 70 63 58 59 63 61 48 25 26 34 30 27 24 23 19 16
66 124 139 148 125 125 120 160 191 174 146 151 154 152 154 153 154 157 155 151 147 142 133 124 121 119 112 104 97 92 90 80 73 69 63 60 60 63 65 52 32 36 36 23 24 29 25 19 8
155 142 141 159 173 123 134 173 181 181 162 164 166 165 165 164 171 164 157 154 147 142 134 130 124 120 110 95 86 75 67 58 62 65 63 63 61 62 61 52 37 39 37 25 24 26 22 20 5
142 133 139 172 169 136 158 174 186 193 173 173 179 179 178 178 177 164 155 148 143 140 135 135 130 132 120 107 106 100 89 64 47 54 65 67 63 60 61 51 38 37 43 32 28 26 23 14 9
128 126 130 132 161 149 159 204 211 204 193 188 187 188 184 175 170 168 159 151 149 150 145 142 140 139 136 137 141 135 128 108 85 48 53 57 58 57 61 56 46 38 42 34 30 36 32 19 27
141 159 167 160 128 123 127 269 233 229 214 202 193 187 185 178 177 173 165 162 155 158 160 155 151 145 140 128 109 89 71 53 40 30 20 26 53 59 60 59 59 46 53 46 34 40 56 36 18
167 179 156 151 126 189 164 205 253 220 213 212 203 189 189 185 179 176 170 166 166 168 163 155 151 145 138 126 121 125 127 132 168 166 43 30 45 54 59 61 64 59 53 49 39 50 53 64 33
175 164 144 150 135 92 186 168 262 208 215 219 209 198 191 187 182 180 178 173 167 162 157 154 146 140 139 133 133 130 130 140 132 97 70 38 22 37 50 60 62 56 50 51 47 47 49 60 67
138 83 67 57 75 283 218 179 248 213 210 206 205 199 193 187 183 181 180 165 158 155 151 148 144 145 149 141 139 139 141 138 124 111 94 30 10 10 26 54 59 56 52 51 49 51 53 54 60
89 98 65 19 3 253 230 195 243 230 211 198 195 196 192 184 179 177 175 172 165 160 157 152 148 153 157 149 149 148 150 148 147 152 151 137 50 9 352 41 52 50 49 57 61 57 49 48 55
172 138 152 176 217 280 294 234 261 254 214 194 186 184 183 182 183 183 180 176 170 166 163 158 157 161 165 159 157 156 155 152 154 159 159 164 173 199 191 71 63 56 58 63 63 56 42 48 51
152 188 178 142 179 290 290 292 314 4 168 175 175 175 185 187 186 184 180 177 172 170 170 166 164 167 173 168 156 156 158 154 154 153 148 160 183 164 101 81 75 59 60 63 66 55 36 42 41
170 163 105 113 132 285 300 280 249 231 194 186 183 187 193 189 186 183 180 179 176 174 172 167 168 172 174 170 166 164 165 159 151 139 140 150 143 94 91 81 80 63 54 59 63 50 39 48 28
176 157 133 132 156 157 262 276 235 208 199 192 196 194 190 189 188 187 185 181 175 169 168 170 173 171 172 171 165 158 162 156 148 144 150 148 129 112 115 111 96 81 64 58 64 48 46 48 26
191 191 155 154 209 176 187 270 276 216 207 193 195 195 191 189 187 185 181 174 172 174 175 177 178 176 179 174 166 165 162 154 151 150 156 145 131 113 114 106 99 91 78 67 70 54 51 52 27
Height
1516 1516 1515 1516 1518 1528 1532 1527 1523 1522 1524 1527 1526 1527 1530 1535 1539 1547 1546 1545 1546 1546 1546 1545 1545 1545 1545 1545 1545 1545 1545 1545 1544 1544 1544 1544 1544 1543 1543 1543 1542 1542 1541 1541 1541 1541 1540 1540 1540
1516 1515 1516 1516 1525 1539 1536 1527 1525 1523 1526 1527 1528 1531 1533 1538 1540 1543 1545 1546 1547 1547 1547 1546 1546 1546 1546 1546 1546 1546 1546 1545 1545 1545 1545 1545 1544 1544 1544 1543 1543 1542 1542 1541 1541 1541 1541 1540 1540
1515 1515 1516 1519 1528 1536 1534 1528 1526 1526 1527 1527 1531 1534 1537 1541 1543 1544 1546 1547 1548 1548 1548 1548 1547 1547 1547 1547 1547 1547 1547 1547 1546 1546 1546 1546 1545 1545 1544 1543 1543 1542 1542 1542 1541 1541 1541 1540 1540
1515 1516 1517 1524 1530 1528 1526 1527 1525 1526 1529 1530 1532 1537 1541 1544 1544 1546 1548 1549 1549 1549 1549 1549 1549 1549 1549 1549 1548 1548 1548 1548 1548 1547 1547 1547 1546 1545 1545 1544 1543 1543 1542 1542 1542 1541 1541 1541 1541
1515 1516 1523 1531 1530 1527 1525 1525 1525 1527 1530 1533 1533 1539 1544 1546 1547 1548 1550 1551 1551 1551 1551 1551 1551 1551 1551 1550 1550 1550 1549 1549 1549 1549 1548 1548 1547 1546 1546 1545 1544 1543 1543 1542 1542 1542 1541 1541 1541
1516 1517 1530 1536 1532 1528 1527 1527 1527 1530 1533 1536 1537 1541 1547 1549 1549 1550 1552 1553 1553 1553 1553 1553 1553 1553 1552 1552 1552 1552 1551 1551 1551 1551 1550 1549 1549 1548 1547 1546 1545 1544 1543 1543 1543 1542 1542 1541 1541
1517 1522 1530 1533 1533 1531 1529 1529 1529 1532 1534 1537 1538 1542 1547 1550 1551 1552 1553 1554 1554 1554 1554 1555 1555 1555 1554 1554 1554 1554 1553 1553 1553 1552 1552 1551 1550 1549 1549 1548 1547 1546 1545 1544 1543 1543 1542 1542 1542
1516 1521 1529 1531 1533 1532 1530 1530 1532 1533 1536 1539 1540 1542 1547 1550 1552 1554 1555 1555 1556 1556 1556 1556 1556 1557 1556 1556 1556 1556 1555 1555 1554 1554 1553 1552 1552 1551 1550 1549 1548 1547 1546 1545 1544 1543 1543 1543 1542
1517 1526 1533 1531 1532 1532 1530 1531 1534 1536 1537 1539 1541 1543 1546 1550 1552 1554 1556 1557 1557 1558 1558 1558 1558 1558 1558 1558 1558 1557 1557 1556 1556 1555 1554 1554 1553 1552 1551 1550 1549 1548 1547 1546 1545 1544 1543 1543 1543
1517 1529 1528 1526 1527 1529 1530 1532 1535 1538 1540 1541 1543 1547 1549 1551 1553 1555 1556 1557 1558 1558 1559 1560 1560 1560 1560 1559 1559 1559 1558 1558 1557 1556 1555 1555 1554 1553 1552 1551 1550 1549 1548 1546 1546 1545 1544 1544 1543
1518 1525 1524 1525 1526 1529 1531 1533 1535 1538 1542 1543 1544 1548 1551 1553 1555 1556 1557 1558 1559 1559 1560 1561 1561 1561 1561 1561 1561 1560 1560 1559 1558 1557 1557 1556 1555 1554 1553 1552 1551 1549 1548 1547 1546 1545 1545 1544 1544
1520 1523 1524 1526 1528 1530 1532 1534 1537 1538 1542 1544 1546 1548 1551 1554 1556 1557 1558 1559 1560 1561 1561 1562 1562 1562 1563 1562 1562 1562 1561 1560 1560 1559 1558 1557 1556 1555 1554 1553 1551 1550 1549 1548 1547 1546 1545 1544 1544
1522 1525 1526 1528 1529 1531 1533 1536 1538 1542 1544 1546 1548 1551 1553 1555 1556 1558 1559 1560 1561 1562 1562 1563 1564 1564 1564 1564 1563 1563 1562 1562 1561 1560 1559 1558 1557 1556 1555 1553 1552 1551 1549 1548 1547 1546 1545 1544 1544
1525 1526 1529 1530 1532 1534 1536 1539 1540 1544 1546 1548 1549 1552 1554 1555 1557 1558 1560 1561 1562 1563 1563 1564 1565 1565 1565 1565 1564 1564 1564 1563 1562 1561 1560 1559 1558 1556 1555 1554 1553 1551 1550 1549 1548 1547 1546 1545 1544
1526 1529 1532 1534 1535 1537 1538 1544 1543 1545 1547 1549 1550 1552 1554 1555 1557 1558 1560 1561 1563 1563 1564 1565 1565 1566 1566 1566 1565 1565 1565 1564 1563 1562 1561 1560 1559 1558 1556 1555 1553 1552 1551 1550 1548 1547 1546 1546 1545
1529 1535 1541 1538 1536 1538 1542 1550 1545 1546 1547 1549 1551 1553 1554 1556 1557 1559 1560 1562 1563 1564 1565 1565 1566 1566 1566 1566 1566 1566 1565 1565 1564 1563 1562 1561 1560 1559 1557 1556 1554 1553 1551 1550 1549 1548 1547 1546 1545
1536 1543 1544 1541 1537 1538 1541 1548 1545 1546 1547 1549 1551 1553 1554 1556 1558 1559 1561 1562 1563 1564 1565 1566 1566 1566 1567 1567 1567 1566 1566 1565 1564 1564 1563 1562 1561 1560 1558 1557 1555 1554 1552 1551 1550 1549 1548 1547 1546
1542 1544 1544 1543 1538 1538 1542 1545 1544 1545 1546 1548 1550 1552 1554 1555 1557 1559 1560 1562 1563 1564 1565 1566 1566 1567 1567 1567 1567 1567 1566 1566 1565 1564 1563 1563 1562 1561 1559 1558 1556 1555 1553 1552 1551 1550 1549 1548 1547
1534 1539 1543 1542 1537 1540 1544 1545 1544 1544 1546 1548 1549 1551 1552 1554 1557 1558 1560 1561 1563 1564 1565 1565 1566 1567 1567 1567 1567 1567 1567 1566 1566 1565 1564 1564 1563 1561 1560 1559 1557 1556 1554 1553 1552 1551 1549 1548 1548
1534 1541 1543 1541 1537 1541 1545 1546 1543 1543 1544 1545 1546 1548 1550 1553 1555 1557 1558 1560 1561 1563 1564 1565 1566 1567 1567 1567 1567 1567 1567 1567 1566 1566 1565 1564 1563 1562 1561 1559 1558 1556 1555 1553 1552 1551 1550 1549 1548
1536 1540 1541 1541 1540 1541 1546 1550 1546 1543 1542 1543 1545 1546 1548 1550 1552 1554 1556 1558 1560 1562 1563 1564 1565 1566 1567 1567 1567 1567 1567 1567 1567 1566 1565 1565 1564 1562 1561 1560 1558 1557 1555 1554 1553 1552 1551 1550 1549
1539 1533 1535 1538 1545 1552 1549 1562 1548 1542 1541 1541 1541 1543 1545 1548 1550 1552 1554 1556 1558 1560 1562 1564 1564 1565 1566 1566 1567 1567 1567 1567 1567 1566 1566 1565 1564 1563 1562 1561 1559 1558 1556 1555 1554 1553 1552 1551 1550
1534 1531 1534 1539 1545 1552 1551 1558 1551 1541 1542 1538 1537 1539 1541 1544 1547 1550 1552 1554 1557 1559 1561 1562 1563 1564 1565 1566 1566 1566 1566 1567 1566 1566 1566 1565 1564 1563 1562 1561 1560 1559 1557 1556 1555 1554 1553 1552 1551
1530 1534 1538 1544 1550 1560 1551 1556 1552 1541 1534 1531 1532 1535 1538 1541 1544 1547 1550 1553 1555 1557 1559 1561 1562 1563 1564 1565 1565 1566 1566 1566 1566 1566 1566 1565 1565 1564 1563 1562 1561 1559 1558 1557 1556 1554 1553 1552 1552
1534 1545 1559 1562 1566 1562 1545 1548 1544 1525 1521 1523 1526 1530 1534 1538 1541 1544 1547 1550 1552 1555 1557 1559 1561 1562 1563 1564 1565 1565 1565 1566 1566 1566 1565 1565 1564 1564 1563 1562 1561 1560 1558 1557 1556 1555 1554 1553 1552
1536 1543 1559 1567 1567 1559 1546 1546 1532 1517 1516 1519 1522 1526 1531 1534 1538 1541 1544 1547 1549 1552 1555 1557 1559 1560 1562 1563 1564 1564 1565 1565 1565 1565 1565 1565 1564 1564 1563 1562 1561 1560 1559 1558 1556 1555 1554 1553 1552
1536 1541 1540 1551 1554 1559 1551 1539 1525 1516 1517 1519 1522 1526 1528 1531 1534 1537 1541 1544 1547 1550 1552 1555 1557 1559 1560 1562 1563 1563 1564 1564 1564 1564 1564 1564 1564 1563 1563 1562 1561 1560 1559 1558 1557 1555 1554 1553 1552
1528 1532 1543 1550 1560 1565 1554 1544 1538 1523 1520 1519 1521 1523 1525 1528 1532 1535 1538 1541 1544 1547 1550 1553 1555 1557 1559 1560 1561 1562 1563 1563 1563 1564 1563 1563 1563 1563 1562 1561 1561 1560 1559 1558 1556 1555 1554 1553 1552
1530 1533 1538 1547 1551 1561 1562 1548 1520 1518 1516 1517 1518 1520 1522 1525 1529 1532 1535 1539 1542 1545 1548 1551 1553 1555 1557 1558 1560 1561 1561 1562 1562 1563 1563 1562 1562 1562 1561 1561 1560 1559 1558 1557 1556 1555 1554 1553 1552
1523 1526 1534 1547 1550 1550 1555 1545 1512 1512 1512 1514 1516 1518 1520 1523 1526 1529 1533 1536 1540 1542 1545 1548 1551 1553 1555 1556 1558 1559 1560 1560 1561 1561 1561 1561 1561 1561 1560 1560 1559 1558 1557 1556 1555 1554 1553 1552 1551